Flag Weather past 2 weeks in Arusha, Tanzania

Now
63 °F

Passing clouds.


Feels Like: 63 °F
Forecast: 63 / 83 °F
Wind: 3 mph from North

Location: Kenyatta Airport

Current Time: Nov 28, 2014 at 2:35:59 AM

Latest Report: Nov 28, 2014 at 2:00 AM


Visibility: N/A

Pressure: 30.12 "Hg

Humidity: 88%

Dew point: 59 °F

Location of ArushaLocation

Historic Weather in Arusha — Graph

°F

Arusha temperature yesterday

Maximum temperature yesterday: 81 °F (at 3:30 PM)
Minimum temperature yesterday: 63 °F (at 2:00 AM)
Average temperature yesterday: 70 °F

Past Weeks' High & Low Weather Summary

 TemperatureHumidityPressure
High84 °F (Nov 25, 6:00 PM)100% (Nov 13, 3:00 AM)30.27 "Hg (Nov 13, 3:00 AM)
Low57 °F (Nov 20, 5:00 AM)34% (Nov 26, 1:00 PM)29.80 "Hg (Nov 25, 6:00 PM)
Average68 °F78%30.14 "Hg
* Reported Nov 13 1:00 AM — Nov 28 1:00 AM, Arusha, Weather by CustomWeather, © 2014

Note: Actual official high and low records may vary slightly from our data, if they occured in-between our weather recording intervals... More about our weather records

Advertising

Arusha weather history for previous 24 hours

 ConditionsComfort  
Time TempWeatherWind HumidityBarometerVisibility
1:00 AM
Nov 28
63 °FPassing clouds.6 mph88%30.12 "HgN/A
12:30 AM64 °FPassing clouds.6 mph83%30.15 "HgN/A
12:00 AM64 °FPassing clouds.5 mph83%30.15 "HgN/A
11:30 PM
Nov 27
64 °FPassing clouds.3 mph73%30.15 "HgN/A
11:00 PM64 °FPassing clouds.3 mph73%30.15 "HgN/A
10:00 PM64 °FClear.3 mph73%30.15 "Hg10 mi
9:30 PM66 °FClear.5 mph68%30.15 "Hg10 mi
9:00 PM68 °FPassing clouds.8 mph64%30.12 "HgN/A
8:00 PM70 °FPassing clouds.15 mph60%30.09 "HgN/A
7:00 PM72 °FPassing clouds.10 mph57%30.09 "HgN/A
6:00 PM77 °FPartly sunny.16 mph44%30.07 "HgN/A
5:00 PM79 °FBroken clouds.15 mph42%30.04 "HgN/A
4:00 PM81 °FPartly sunny.14 mph34%30.04 "HgN/A
3:30 PM81 °FPartly sunny.12 mph37%30.04 "HgN/A
3:00 PM79 °FPartly sunny.9 mph37%30.04 "HgN/A
2:30 PM77 °FPartly sunny.13 mph44%30.04 "HgN/A
2:00 PM77 °FSprinkles. Partly sunny.13 mph47%30.07 "HgN/A
1:30 PM79 °FPartly sunny.10 mph48%30.07 "HgN/A
1:00 PM77 °FPartly sunny.8 mph51%30.09 "HgN/A
12:00 PM77 °FPartly sunny.6 mph51%30.09 "HgN/A
11:00 AM75 °FPartly sunny.3 mph57%30.12 "HgN/A
10:00 AM75 °FPartly sunny.7 mph57%30.15 "HgN/A
9:00 AM70 °FPartly sunny.6 mph78%30.18 "HgN/A
8:00 AM66 °FBroken clouds.6 mph88%30.15 "HgN/A
7:30 AM64 °FPartly sunny.6 mph94%30.15 "HgN/A
7:00 AM63 °FScattered clouds.8 mph94%30.15 "HgN/A
6:30 AM63 °FScattered clouds.6 mph94%30.12 "HgN/A
6:00 AM63 °FPassing clouds.5 mph94%30.12 "HgN/A
5:00 AM64 °FPassing clouds.7 mph88%30.09 "HgN/A
4:00 AM64 °FPassing clouds.6 mph83%30.09 "HgN/A
2:00 AM63 °FPassing clouds.5 mph88%30.07 "HgN/A
Weather by CustomWeather, © 2014

See weather overviewHow to use our weather pages